Owatonna, MN

3:24 AM CST on November 18, 2017 (GMT -0600)
Owatonna Degner Regional

Weather History for KOWA - November, 2013

Change the Weather History Date:

Wednesday, November 13, 2013

  Actual Average Record
Temperature  
Mean Temperature 34 °F -  
Max Temperature 48 °F 40 °F 71 °F (1999)
Min Temperature 21 °F 24 °F -5 °F (1986)
Degree Days  
Heating Degree Days 30    
Moisture  
Dew Point 23 °F    
Average Humidity 62    
Maximum Humidity 69    
Minimum Humidity 53    
Precipitation  
Precipitation 0.00 in - - ()
Sea Level Pressure  
Sea Level Pressure 30.12 in    
Wind  
Wind Speed 14 mph (SSW)    
Max Wind Speed 28 mph    
Max Gust Speed 31 mph    
Visibility 10 miles    
Events      
Averages and records for this station are not official NWS values.
T = Trace of Precipitation, MM = Missing Value Source: NWS Daily Summary

Daily Weather History Graph

Daily Weather History Graph

Search for Another Location

Airport or City:

Trip Planner

Search our weather history database for the weather conditions in past years. The results will help you decide how hot, cold, wet, or windy it might be!

Date:

Astronomy

Nov. 13, 2013 Rise Set
Actual Time 7:06 AM CST 4:48 PM CST
Civil Twilight 6:34 AM CST 5:19 PM CST
Nautical Twilight 6:00 AM CST 5:54 PM CST
Astronomical Twilight 5:25 AM CST 6:28 PM CST
Moon 2:43 PM CST (11/13) 2:51 AM CST (11/13)
Length of Visible Light 10h 44m
Length of Day
9h 42m
Waxing Gibbous, 85% of the Moon is Illuminated
Nov 13
Waxing Gibbous
Nov 17
Full
Nov 25
Last Quarter
Dec 2
New
Dec 9
First Quarter

Hourly Weather History & Observations

Time (CST) Temp. Windchill Dew Point Humidity Pressure Visibility Wind Dir Wind Speed Gust Speed Precip Events Conditions
12:14 AM 21.2 °F 10.9 °F 12.2 °F 68% 30.46 in 10.0 mi SSW 9.2 mph - N/A   Clear
12:34 AM 21.2 °F 9.5 °F 12.2 °F 68% 30.44 in 10.0 mi SSW 11.5 mph - N/A   Clear
12:54 AM 21.2 °F 9.5 °F 12.2 °F 68% 30.43 in 10.0 mi SSW 11.5 mph - N/A   Clear
1:14 AM 21.2 °F 9.5 °F 12.2 °F 68% 30.41 in 10.0 mi SSW 11.5 mph - N/A   Clear
1:34 AM 23.0 °F 12.4 °F 12.2 °F 63% 30.41 in 10.0 mi SSW 10.4 mph - N/A   Clear
1:54 AM 23.0 °F 11.7 °F 12.2 °F 63% 30.40 in 10.0 mi SSW 11.5 mph - N/A   Clear
2:14 AM 23.0 °F 10.6 °F 12.2 °F 63% 30.39 in 10.0 mi SSW 13.8 mph - N/A   Clear
2:34 AM 23.0 °F 12.4 °F 12.2 °F 63% 30.38 in 10.0 mi SSW 10.4 mph - N/A   Clear
2:54 AM 23.0 °F 11.1 °F 12.2 °F 63% 30.36 in 10.0 mi SSW 12.7 mph - N/A   Clear
3:14 AM 23.0 °F 10.6 °F 12.2 °F 63% 30.35 in 10.0 mi South 13.8 mph - N/A   Clear
3:34 AM 24.8 °F 12.9 °F 12.2 °F 59% 30.34 in 10.0 mi South 13.8 mph - N/A   Clear
3:54 AM 24.8 °F 12.4 °F 12.2 °F 59% 30.32 in 10.0 mi South 15.0 mph - N/A   Clear
4:14 AM 24.8 °F 12.9 °F 12.2 °F 59% 30.31 in 10.0 mi South 13.8 mph - N/A   Clear
4:34 AM 24.8 °F 13.4 °F 12.2 °F 59% 30.31 in 10.0 mi South 12.7 mph - N/A   Clear
4:54 AM 23.0 °F 11.7 °F 12.2 °F 63% 30.30 in 10.0 mi South 11.5 mph - N/A   Clear
5:14 AM 23.0 °F 12.4 °F 12.2 °F 63% 30.28 in 10.0 mi South 10.4 mph - N/A   Clear
5:34 AM 24.8 °F 13.4 °F 14.0 °F 64% 30.27 in 10.0 mi South 12.7 mph 18.4 mph N/A   Clear
5:54 AM 23.0 °F 12.4 °F 14.0 °F 68% 30.26 in 10.0 mi South 10.4 mph - N/A   Clear
6:14 AM 24.8 °F 13.4 °F 14.0 °F 64% 30.25 in 10.0 mi South 12.7 mph - N/A   Clear
6:34 AM 24.8 °F 13.4 °F 14.0 °F 64% 30.23 in 10.0 mi South 12.7 mph 19.6 mph N/A   Clear
6:54 AM 24.8 °F 11.9 °F 14.0 °F 64% 30.22 in 10.0 mi South 16.1 mph 19.6 mph N/A   Clear
7:14 AM 24.8 °F 12.4 °F 15.8 °F 69% 30.21 in 10.0 mi South 15.0 mph 23.0 mph N/A   Clear
7:34 AM 24.8 °F 11.5 °F 15.8 °F 69% 30.20 in 10.0 mi South 17.3 mph 24.2 mph N/A   Clear
7:54 AM 26.6 °F 14.3 °F 15.8 °F 64% 30.20 in 10.0 mi South 16.1 mph 21.9 mph N/A   Clear
8:14 AM 26.6 °F 13.8 °F 17.6 °F 69% 30.19 in 10.0 mi South 17.3 mph 23.0 mph N/A   Clear
8:34 AM 28.4 °F 15.4 °F 17.6 °F 64% 30.19 in 10.0 mi South 19.6 mph 24.2 mph N/A   Clear
8:54 AM 28.4 °F 15.8 °F 19.4 °F 69% 30.18 in 10.0 mi South 18.4 mph - N/A   Clear
9:14 AM 30.2 °F 17.4 °F 19.4 °F 64% 30.17 in 10.0 mi South 20.7 mph 25.3 mph N/A   Clear
9:34 AM 32.0 °F 19.8 °F 21.2 °F 64% 30.17 in 10.0 mi South 20.7 mph 25.3 mph N/A   Clear
9:54 AM 33.8 °F 22.8 °F 21.2 °F 60% 30.16 in 10.0 mi South 18.4 mph 21.9 mph N/A   Clear
10:14 AM 33.8 °F 23.2 °F 23.0 °F 65% 30.14 in 10.0 mi South 17.3 mph 21.9 mph N/A   Clear
10:34 AM 37.4 °F 27.5 °F 24.8 °F 60% 30.14 in 10.0 mi South 18.4 mph 24.2 mph N/A   Clear
10:54 AM 37.4 °F 27.2 °F 24.8 °F 60% 30.14 in 10.0 mi SSW 19.6 mph 26.5 mph N/A   Clear
11:14 AM 39.2 °F 29.3 °F 26.6 °F 61% 30.12 in 10.0 mi SSW 20.7 mph 25.3 mph N/A   Clear
11:34 AM 41.0 °F 31.4 °F 26.6 °F 57% 30.11 in 10.0 mi SSW 21.9 mph 28.8 mph N/A   Clear
11:54 AM 42.8 °F 33.5 °F 28.4 °F 57% 30.08 in 10.0 mi South 23.0 mph 29.9 mph N/A   Clear
12:14 PM 42.8 °F 32.7 °F 28.4 °F 57% 30.07 in 10.0 mi SSW 27.6 mph 31.1 mph N/A   Clear
12:34 PM 44.6 °F 36.6 °F 28.4 °F 53% 30.06 in 10.0 mi SSW 19.6 mph 28.8 mph N/A   Clear
12:54 PM 44.6 °F 36.4 °F 30.2 °F 57% 30.05 in 10.0 mi SSW 20.7 mph 29.9 mph N/A   Clear
1:14 PM 46.4 °F 38.7 °F 30.2 °F 53% 30.03 in 10.0 mi South 20.7 mph 31.1 mph N/A   Clear
1:34 PM 46.4 °F 39.0 °F 32.0 °F 57% 30.02 in 10.0 mi South 19.6 mph 24.2 mph N/A   Clear
1:54 PM 48.2 °F - 32.0 °F 54% 30.01 in 10.0 mi SSW 19.6 mph 24.2 mph N/A   Clear
2:14 PM 48.2 °F - 33.8 °F 58% 30.01 in 10.0 mi SSW 16.1 mph 25.3 mph N/A   Clear
2:34 PM 48.2 °F - 33.8 °F 58% 30.00 in 10.0 mi SSW 19.6 mph 26.5 mph N/A   Clear
2:54 PM 48.2 °F - 33.8 °F 58% 29.99 in 10.0 mi SSW 17.3 mph 23.0 mph N/A   Clear
3:14 PM 48.2 °F - 33.8 °F 58% 29.98 in 10.0 mi SSW 23.0 mph 28.8 mph N/A   Clear
3:34 PM 48.2 °F - 33.8 °F 58% 29.97 in 10.0 mi SSW 19.6 mph 26.5 mph N/A   Clear
3:54 PM 48.2 °F - 33.8 °F 58% 29.97 in 10.0 mi SSW 19.6 mph 24.2 mph N/A   Clear
4:14 PM 48.2 °F - 33.8 °F 58% 29.97 in 10.0 mi SSW 12.7 mph 23.0 mph N/A   Clear
4:34 PM 46.4 °F 40.1 °F 33.8 °F 62% 29.97 in 10.0 mi SSW 15.0 mph - N/A   Clear
4:54 PM 44.6 °F 37.4 °F 32.0 °F 61% 29.96 in 10.0 mi SSW 16.1 mph - N/A   Clear
5:14 PM 44.6 °F 38.1 °F 32.0 °F 61% 29.96 in 10.0 mi South 13.8 mph - N/A   Clear
5:34 PM 42.8 °F 35.1 °F 30.2 °F 61% 29.96 in 10.0 mi South 16.1 mph - N/A   Clear
5:54 PM 42.8 °F 35.1 °F 30.2 °F 61% 29.96 in 10.0 mi South 16.1 mph - N/A   Clear
6:14 PM 42.8 °F 34.8 °F 30.2 °F 61% 29.96 in 10.0 mi South 17.3 mph - N/A   Clear
6:34 PM 42.8 °F 35.4 °F 30.2 °F 61% 29.97 in 10.0 mi SSW 15.0 mph 19.6 mph N/A   Clear
6:54 PM 42.8 °F 34.8 °F 28.4 °F 57% 29.96 in 10.0 mi SSW 17.3 mph - N/A   Clear
7:14 PM 41.0 °F 32.8 °F 28.4 °F 61% 29.96 in 10.0 mi SSW 16.1 mph 23.0 mph N/A   Clear
7:34 PM 41.0 °F 32.5 °F 28.4 °F 61% 29.96 in 10.0 mi SSW 17.3 mph 23.0 mph N/A   Clear
7:54 PM 39.2 °F 30.5 °F 28.4 °F 65% 29.95 in 10.0 mi SSW 16.1 mph - N/A   Clear
8:14 PM 39.2 °F 30.8 °F 28.4 °F 65% 29.95 in 10.0 mi SSW 15.0 mph 23.0 mph N/A   Clear
8:34 PM 39.2 °F 30.5 °F 28.4 °F 65% 29.95 in 10.0 mi SSW 16.1 mph 23.0 mph N/A   Clear
8:54 PM 39.2 °F 30.8 °F 28.4 °F 65% 29.95 in 10.0 mi SSW 15.0 mph - N/A   Clear
9:14 PM 39.2 °F 31.2 °F 28.4 °F 65% 29.95 in 10.0 mi SSW 13.8 mph - N/A   Clear
9:34 PM 39.2 °F 30.8 °F 28.4 °F 65% 29.94 in 10.0 mi SSW 15.0 mph - N/A   Clear
9:54 PM 37.4 °F 28.5 °F 26.6 °F 65% 29.94 in 10.0 mi SSW 15.0 mph - N/A   Clear
10:14 PM 37.4 °F 27.8 °F 26.6 °F 65% 29.93 in 10.0 mi SSW 17.3 mph 20.7 mph N/A   Clear
10:34 PM 37.4 °F 28.5 °F 26.6 °F 65% 29.93 in 10.0 mi SSW 15.0 mph - N/A   Clear
10:54 PM 37.4 °F 28.9 °F 26.6 °F 65% 29.92 in 10.0 mi SSW 13.8 mph 20.7 mph N/A   Clear
11:14 PM 37.4 °F 28.5 °F 26.6 °F 65% 29.92 in 10.0 mi SSW 15.0 mph - N/A   Clear
11:34 PM 37.4 °F 28.9 °F 26.6 °F 65% 29.91 in 10.0 mi SSW 13.8 mph - N/A   Clear
11:54 PM 37.4 °F 29.3 °F 26.6 °F 65% 29.91 in 10.0 mi SSW 12.7 mph - N/A   Clear